owner,sensor,date,latitude,longitude,sea_water_turbidity,qcFlag 
NERRS,ioos:station:NOAA.NERRS:wkbfrwq:1,2014-04-03T16:45:00Z,30.4162,-87.8228,50.0,1111122 
NERRS,ioos:station:NOAA.NERRS:wkbfrwq:1,2014-04-03T17:45:00Z,30.4162,-87.8228,48.0,1111122 
NERRS,ioos:station:NOAA.NERRS:wkbfrwq:1,2014-04-03T18:45:00Z,30.4162,-87.8228,52.0,1111122 
NERRS,ioos:station:NOAA.NERRS:wkbfrwq:1,2014-04-03T20:45:00Z,30.4162,-87.8228,47.0,1111122 
NERRS,ioos:station:NOAA.NERRS:wkbfrwq:1,2014-04-03T21:45:00Z,30.4162,-87.8228,44.0,1111122 
NERRS,ioos:station:NOAA.NERRS:wkbfrwq:1,2014-04-03T22:45:00Z,30.4162,-87.8228,38.0,1111122 
NERRS,ioos:station:NOAA.NERRS:wkbfrwq:1,2014-04-03T23:45:00Z,30.4162,-87.8228,37.0,1111122 
NERRS,ioos:station:NOAA.NERRS:wkbfrwq:1,2014-04-04T01:45:00Z,30.4162,-87.8228,31.0,1111122 
NERRS,ioos:station:NOAA.NERRS:wkbfrwq:1,2014-04-04T02:45:00Z,30.4162,-87.8228,29.0,1111122 
NERRS,ioos:station:NOAA.NERRS:wkbfrwq:1,2014-04-04T03:45:00Z,30.4162,-87.8228,30.0,1111122 
NERRS,ioos:station:NOAA.NERRS:wkbfrwq:1,2014-04-04T06:45:00Z,30.4162,-87.8228,29.0,1111122 
NERRS,ioos:station:NOAA.NERRS:wkbfrwq:1,2014-04-04T07:45:00Z,30.4162,-87.8228,29.0,1111122 
NERRS,ioos:station:NOAA.NERRS:wkbfrwq:1,2014-04-04T08:45:00Z,30.4162,-87.8228,31.0,1111122 
NERRS,ioos:station:NOAA.NERRS:wkbfrwq:1,2014-04-04T10:45:00Z,30.4162,-87.8228,38.0,1111122 
NERRS,ioos:station:NOAA.NERRS:wkbfrwq:1,2014-04-04T11:45:00Z,30.4162,-87.8228,38.0,1111122 
NERRS,ioos:station:NOAA.NERRS:wkbfrwq:1,2014-04-04T13:45:00Z,30.4162,-87.8228,41.0,1111122 
NERRS,ioos:station:NOAA.NERRS:wkbfrwq:1,2014-04-04T14:45:00Z,30.4162,-87.8228,39.0,1111122 
NERRS,ioos:station:NOAA.NERRS:wkbfrwq:1,2014-04-04T15:45:00Z,30.4162,-87.8228,42.0,1111122 
NERRS,ioos:station:NOAA.NERRS:wkbfrwq:1,2014-04-04T17:45:00Z,30.4162,-87.8228,43.0,1111122 
NERRS,ioos:station:NOAA.NERRS:wkbfrwq:1,2014-04-04T18:45:00Z,30.4162,-87.8228,34.0,1111122 
NERRS,ioos:station:NOAA.NERRS:wkbfrwq:1,2014-04-04T20:45:00Z,30.4162,-87.8228,34.0,1111122 
NERRS,ioos:station:NOAA.NERRS:wkbfrwq:1,2014-04-04T21:45:00Z,30.4162,-87.8228,33.0,1111122 
NERRS,ioos:station:NOAA.NERRS:wkbfrwq:1,2014-04-04T23:45:00Z,30.4162,-87.8228,29.0,1111122 
NERRS,ioos:station:NOAA.NERRS:wkbfrwq:1,2014-04-05T00:45:00Z,30.4162,-87.8228,35.0,1111122 
NERRS,ioos:station:NOAA.NERRS:wkbfrwq:1,2014-04-05T01:45:00Z,30.4162,-87.8228,30.0,1111122 
NERRS,ioos:station:NOAA.NERRS:wkbfrwq:1,2014-04-05T02:45:00Z,30.4162,-87.8228,29.0,1111122 
NERRS,ioos:station:NOAA.NERRS:wkbfrwq:1,2014-04-05T03:45:00Z,30.4162,-87.8228,27.0,1111122 
NERRS,ioos:station:NOAA.NERRS:wkbfrwq:1,2014-04-05T04:45:00Z,30.4162,-87.8228,27.0,1111122 
NERRS,ioos:station:NOAA.NERRS:wkbfrwq:1,2014-04-05T05:45:00Z,30.4162,-87.8228,27.0,1111122 
NERRS,ioos:station:NOAA.NERRS:wkbfrwq:1,2014-04-05T07:45:00Z,30.4162,-87.8228,25.0,1111122 
NERRS,ioos:station:NOAA.NERRS:wkbfrwq:1,2014-04-05T08:45:00Z,30.4162,-87.8228,25.0,1111122 
NERRS,ioos:station:NOAA.NERRS:wkbfrwq:1,2014-04-05T09:45:00Z,30.4162,-87.8228,24.0,1111122 
NERRS,ioos:station:NOAA.NERRS:wkbfrwq:1,2014-04-05T11:45:00Z,30.4162,-87.8228,24.0,1111122 
NERRS,ioos:station:NOAA.NERRS:wkbfrwq:1,2014-04-05T12:45:00Z,30.4162,-87.8228,27.0,1111122 
NERRS,ioos:station:NOAA.NERRS:wkbfrwq:1,2014-04-05T13:45:00Z,30.4162,-87.8228,26.0,1111122 
NERRS,ioos:station:NOAA.NERRS:wkbfrwq:1,2014-04-05T14:45:00Z,30.4162,-87.8228,33.0,1111122 
NERRS,ioos:station:NOAA.NERRS:wkbfrwq:1,2014-04-05T16:45:00Z,30.4162,-87.8228,30.0,1111122 
NERRS,ioos:station:NOAA.NERRS:wkbfrwq:1,2014-04-05T18:45:00Z,30.4162,-87.8228,27.0,1111122 
NERRS,ioos:station:NOAA.NERRS:wkbfrwq:1,2014-04-05T19:45:00Z,30.4162,-87.8228,25.0,1111122 
NERRS,ioos:station:NOAA.NERRS:wkbfrwq:1,2014-04-05T21:45:00Z,30.4162,-87.8228,25.0,1111122 
NERRS,ioos:station:NOAA.NERRS:wkbfrwq:1,2014-04-05T22:45:00Z,30.4162,-87.8228,23.0,1111122 
NERRS,ioos:station:NOAA.NERRS:wkbfrwq:1,2014-04-06T00:45:00Z,30.4162,-87.8228,21.0,1111122 
NERRS,ioos:station:NOAA.NERRS:wkbfrwq:1,2014-04-06T01:45:00Z,30.4162,-87.8228,21.0,1111122 
NERRS,ioos:station:NOAA.NERRS:wkbfrwq:1,2014-04-06T02:45:00Z,30.4162,-87.8228,19.0,1111122 
NERRS,ioos:station:NOAA.NERRS:wkbfrwq:1,2014-04-06T03:45:00Z,30.4162,-87.8228,19.0,1111122 
NERRS,ioos:station:NOAA.NERRS:wkbfrwq:1,2014-04-06T04:45:00Z,30.4162,-87.8228,21.0,1111122 
NERRS,ioos:station:NOAA.NERRS:wkbfrwq:1,2014-04-06T05:45:00Z,30.4162,-87.8228,19.0,1111122 
NERRS,ioos:station:NOAA.NERRS:wkbfrwq:1,2014-04-06T07:45:00Z,30.4162,-87.8228,19.0,1111122 
NERRS,ioos:station:NOAA.NERRS:wkbfrwq:1,2014-04-06T09:45:00Z,30.4162,-87.8228,20.0,1111122 
NERRS,ioos:station:NOAA.NERRS:wkbfrwq:1,2014-04-06T13:45:00Z,30.4162,-87.8228,19.0,1111122 
NERRS,ioos:station:NOAA.NERRS:wkbfrwq:1,2014-04-06T14:45:00Z,30.4162,-87.8228,19.0,1111122 
NERRS,ioos:station:NOAA.NERRS:wkbfrwq:1,2014-04-06T16:45:00Z,30.4162,-87.8228,18.0,1111122 
NERRS,ioos:station:NOAA.NERRS:wkbfrwq:1,2014-04-06T17:45:00Z,30.4162,-87.8228,18.0,1111122 
NERRS,ioos:station:NOAA.NERRS:wkbfrwq:1,2014-04-06T19:45:00Z,30.4162,-87.8228,35.0,1111122 
NERRS,ioos:station:NOAA.NERRS:wkbfrwq:1,2014-04-06T20:45:00Z,30.4162,-87.8228,25.0,1111122 
NERRS,ioos:station:NOAA.NERRS:wkbfrwq:1,2014-04-06T22:45:00Z,30.4162,-87.8228,18.0,1111122 
NERRS,ioos:station:NOAA.NERRS:wkbfrwq:1,2014-04-06T23:45:00Z,30.4162,-87.8228,22.0,1111122 
NERRS,ioos:station:NOAA.NERRS:wkbfrwq:1,2014-04-07T00:45:00Z,30.4162,-87.8228,20.0,1111122 
NERRS,ioos:station:NOAA.NERRS:wkbfrwq:1,2014-04-07T02:45:00Z,30.4162,-87.8228,18.0,1111122 
NERRS,ioos:station:NOAA.NERRS:wkbfrwq:1,2014-04-07T03:45:00Z,30.4162,-87.8228,16.0,1111122 
NERRS,ioos:station:NOAA.NERRS:wkbfrwq:1,2014-04-07T04:45:00Z,30.4162,-87.8228,16.0,1111122 
NERRS,ioos:station:NOAA.NERRS:wkbfrwq:1,2014-04-07T05:45:00Z,30.4162,-87.8228,19.0,1111122 
NERRS,ioos:station:NOAA.NERRS:wkbfrwq:1,2014-04-07T07:45:00Z,30.4162,-87.8228,16.0,1111122 
NERRS,ioos:station:NOAA.NERRS:wkbfrwq:1,2014-04-07T08:45:00Z,30.4162,-87.8228,17.0,1111122 
NERRS,ioos:station:NOAA.NERRS:wkbfrwq:1,2014-04-07T09:45:00Z,30.4162,-87.8228,24.0,1111122 
NERRS,ioos:station:NOAA.NERRS:wkbfrwq:1,2014-04-07T10:45:00Z,30.4162,-87.8228,23.0,1111122 
NERRS,ioos:station:NOAA.NERRS:wkbfrwq:1,2014-04-07T11:45:00Z,30.4162,-87.8228,36.0,1111122 
NERRS,ioos:station:NOAA.NERRS:wkbfrwq:1,2014-04-07T12:45:00Z,30.4162,-87.8228,51.0,1111122 
NERRS,ioos:station:NOAA.NERRS:wkbfrwq:1,2014-04-07T13:45:00Z,30.4162,-87.8228,82.0,1111122 
NERRS,ioos:station:NOAA.NERRS:wkbfrwq:1,2014-04-07T14:45:00Z,30.4162,-87.8228,53.0,1111122 
NERRS,ioos:station:NOAA.NERRS:wkbfrwq:1,2014-04-07T15:45:00Z,30.4162,-87.8228,49.0,1111122 
NERRS,ioos:station:NOAA.NERRS:wkbfrwq:1,2014-04-07T16:45:00Z,30.4162,-87.8228,29.0,1111122 
NERRS,ioos:station:NOAA.NERRS:wkbfrwq:1,2014-04-07T17:45:00Z,30.4162,-87.8228,26.0,1111122 
NERRS,ioos:station:NOAA.NERRS:wkbfrwq:1,2014-04-07T18:45:00Z,30.4162,-87.8228,27.0,1111122 
NERRS,ioos:station:NOAA.NERRS:wkbfrwq:1,2014-04-07T19:45:00Z,30.4162,-87.8228,30.0,1111122 
NERRS,ioos:station:NOAA.NERRS:wkbfrwq:1,2014-04-07T20:45:00Z,30.4162,-87.8228,20.0,1111122 
NERRS,ioos:station:NOAA.NERRS:wkbfrwq:1,2014-04-07T21:45:00Z,30.4162,-87.8228,23.0,1111122 
NERRS,ioos:station:NOAA.NERRS:wkbfrwq:1,2014-04-07T22:45:00Z,30.4162,-87.8228,23.0,1111122 
NERRS,ioos:station:NOAA.NERRS:wkbfrwq:1,2014-04-07T23:45:00Z,30.4162,-87.8228,19.0,1111122 
NERRS,ioos:station:NOAA.NERRS:wkbfrwq:1,2014-04-08T00:45:00Z,30.4162,-87.8228,15.0,1111122 
NERRS,ioos:station:NOAA.NERRS:wkbfrwq:1,2014-04-08T01:45:00Z,30.4162,-87.8228,15.0,1111122 
NERRS,ioos:station:NOAA.NERRS:wkbfrwq:1,2014-04-08T02:45:00Z,30.4162,-87.8228,14.0,1111122 
NERRS,ioos:station:NOAA.NERRS:wkbfrwq:1,2014-04-08T03:45:00Z,30.4162,-87.8228,13.0,1111122 
NERRS,ioos:station:NOAA.NERRS:wkbfrwq:1,2014-04-08T04:45:00Z,30.4162,-87.8228,13.0,1111122 
NERRS,ioos:station:NOAA.NERRS:wkbfrwq:1,2014-04-08T06:45:00Z,30.4162,-87.8228,13.0,1111122 
NERRS,ioos:station:NOAA.NERRS:wkbfrwq:1,2014-04-08T07:45:00Z,30.4162,-87.8228,12.0,1111122 
NERRS,ioos:station:NOAA.NERRS:wkbfrwq:1,2014-04-08T08:45:00Z,30.4162,-87.8228,12.0,1111122 
NERRS,ioos:station:NOAA.NERRS:wkbfrwq:1,2014-04-08T09:45:00Z,30.4162,-87.8228,13.0,1111122 
NERRS,ioos:station:NOAA.NERRS:wkbfrwq:1,2014-04-08T10:45:00Z,30.4162,-87.8228,13.0,1111122 
NERRS,ioos:station:NOAA.NERRS:wkbfrwq:1,2014-04-08T11:45:00Z,30.4162,-87.8228,12.0,1111122 
NERRS,ioos:station:NOAA.NERRS:wkbfrwq:1,2014-04-08T12:45:00Z,30.4162,-87.8228,12.0,1111122 
NERRS,ioos:station:NOAA.NERRS:wkbfrwq:1,2014-04-08T13:45:00Z,30.4162,-87.8228,13.0,1111122 
NERRS,ioos:station:NOAA.NERRS:wkbfrwq:1,2014-04-08T14:45:00Z,30.4162,-87.8228,13.0,1111122 
NERRS,ioos:station:NOAA.NERRS:wkbfrwq:1,2014-04-08T15:45:00Z,30.4162,-87.8228,25.0,1111122 
NERRS,ioos:station:NOAA.NERRS:wkbfrwq:1,2014-04-08T16:45:00Z,30.4162,-87.8228,21.0,1111122 
NERRS,ioos:station:NOAA.NERRS:wkbfrwq:1,2014-04-08T18:45:00Z,30.4162,-87.8228,12.0,1111122 
NERRS,ioos:station:NOAA.NERRS:wkbfrwq:1,2014-04-08T19:45:00Z,30.4162,-87.8228,21.0,1111122 
NERRS,ioos:station:NOAA.NERRS:wkbfrwq:1,2014-04-08T20:45:00Z,30.4162,-87.8228,15.0,1111122 
NERRS,ioos:station:NOAA.NERRS:wkbfrwq:1,2014-04-08T21:45:00Z,30.4162,-87.8228,19.0,1111122 
NERRS,ioos:station:NOAA.NERRS:wkbfrwq:1,2014-04-08T22:45:00Z,30.4162,-87.8228,14.0,1111122 
NERRS,ioos:station:NOAA.NERRS:wkbfrwq:1,2014-04-08T23:45:00Z,30.4162,-87.8228,24.0,1111122 
NERRS,ioos:station:NOAA.NERRS:wkbfrwq:1,2014-04-09T00:45:00Z,30.4162,-87.8228,16.0,1111122 
NERRS,ioos:station:NOAA.NERRS:wkbfrwq:1,2014-04-09T01:45:00Z,30.4162,-87.8228,16.0,1111122 
NERRS,ioos:station:NOAA.NERRS:wkbfrwq:1,2014-04-09T02:45:00Z,30.4162,-87.8228,19.0,1111122 
NERRS,ioos:station:NOAA.NERRS:wkbfrwq:1,2014-04-09T03:45:00Z,30.4162,-87.8228,19.0,1111122 
NERRS,ioos:station:NOAA.NERRS:wkbfrwq:1,2014-04-09T04:45:00Z,30.4162,-87.8228,28.0,1111122 
NERRS,ioos:station:NOAA.NERRS:wkbfrwq:1,2014-04-09T06:45:00Z,30.4162,-87.8228,38.0,1111122 
NERRS,ioos:station:NOAA.NERRS:wkbfrwq:1,2014-04-09T07:45:00Z,30.4162,-87.8228,47.0,1111122 
NERRS,ioos:station:NOAA.NERRS:wkbfrwq:1,2014-04-09T08:45:00Z,30.4162,-87.8228,49.0,1111122 
NERRS,ioos:station:NOAA.NERRS:wkbfrwq:1,2014-04-09T09:45:00Z,30.4162,-87.8228,57.0,1111122 
NERRS,ioos:station:NOAA.NERRS:wkbfrwq:1,2014-04-09T10:45:00Z,30.4162,-87.8228,57.0,1111122 
NERRS,ioos:station:NOAA.NERRS:wkbfrwq:1,2014-04-09T11:45:00Z,30.4162,-87.8228,56.0,1111122 
NERRS,ioos:station:NOAA.NERRS:wkbfrwq:1,2014-04-09T12:45:00Z,30.4162,-87.8228,58.0,1111122 
NERRS,ioos:station:NOAA.NERRS:wkbfrwq:1,2014-04-09T13:45:00Z,30.4162,-87.8228,61.0,1111122 
NERRS,ioos:station:NOAA.NERRS:wkbfrwq:1,2014-04-09T14:45:00Z,30.4162,-87.8228,60.0,1111122 
NERRS,ioos:station:NOAA.NERRS:wkbfrwq:1,2014-04-09T15:45:00Z,30.4162,-87.8228,60.0,1111122 
NERRS,ioos:station:NOAA.NERRS:wkbfrwq:1,2014-04-09T16:45:00Z,30.4162,-87.8228,61.0,1111122 
NERRS,ioos:station:NOAA.NERRS:wkbfrwq:1,2014-04-09T17:45:00Z,30.4162,-87.8228,63.0,1111122 
NERRS,ioos:station:NOAA.NERRS:wkbfrwq:1,2014-04-09T18:45:00Z,30.4162,-87.8228,61.0,1111122 
NERRS,ioos:station:NOAA.NERRS:wkbfrwq:1,2014-04-09T20:45:00Z,30.4162,-87.8228,59.0,1111122 
NERRS,ioos:station:NOAA.NERRS:wkbfrwq:1,2014-04-09T21:45:00Z,30.4162,-87.8228,60.0,1111122 
NERRS,ioos:station:NOAA.NERRS:wkbfrwq:1,2014-04-09T22:45:00Z,30.4162,-87.8228,62.0,1111122 
NERRS,ioos:station:NOAA.NERRS:wkbfrwq:1,2014-04-10T00:45:00Z,30.4162,-87.8228,49.0,1111122 
NERRS,ioos:station:NOAA.NERRS:wkbfrwq:1,2014-04-10T01:45:00Z,30.4162,-87.8228,49.0,1111122 
NERRS,ioos:station:NOAA.NERRS:wkbfrwq:1,2014-04-10T02:45:00Z,30.4162,-87.8228,53.0,1111122 
NERRS,ioos:station:NOAA.NERRS:wkbfrwq:1,2014-04-10T03:45:00Z,30.4162,-87.8228,54.0,1111122 
NERRS,ioos:station:NOAA.NERRS:wkbfrwq:1,2014-04-10T04:45:00Z,30.4162,-87.8228,54.0,1111122 
NERRS,ioos:station:NOAA.NERRS:wkbfrwq:1,2014-04-10T05:45:00Z,30.4162,-87.8228,55.0,1111122 
NERRS,ioos:station:NOAA.NERRS:wkbfrwq:1,2014-04-10T06:45:00Z,30.4162,-87.8228,57.0,1111122 
NERRS,ioos:station:NOAA.NERRS:wkbfrwq:1,2014-04-10T07:45:00Z,30.4162,-87.8228,56.0,1111122 
NERRS,ioos:station:NOAA.NERRS:wkbfrwq:1,2014-04-10T08:45:00Z,30.4162,-87.8228,55.0,1111122 
NERRS,ioos:station:NOAA.NERRS:wkbfrwq:1,2014-04-10T09:45:00Z,30.4162,-87.8228,55.0,1111122 
NERRS,ioos:station:NOAA.NERRS:wkbfrwq:1,2014-04-10T11:45:00Z,30.4162,-87.8228,53.0,1111122 
NERRS,ioos:station:NOAA.NERRS:wkbfrwq:1,2014-04-10T14:45:00Z,30.4162,-87.8228,51.0,1111122 
NERRS,ioos:station:NOAA.NERRS:wkbfrwq:1,2014-04-10T15:45:00Z,30.4162,-87.8228,51.0,1111122 
NERRS,ioos:station:NOAA.NERRS:wkbfrwq:1,2014-04-10T16:45:00Z,30.4162,-87.8228,51.0,1111122 
NERRS,ioos:station:NOAA.NERRS:wkbfrwq:1,2014-04-10T17:45:00Z,30.4162,-87.8228,48.0,1111122 
NERRS,ioos:station:NOAA.NERRS:wkbfrwq:1,2014-04-10T18:45:00Z,30.4162,-87.8228,46.0,1111122 
NERRS,ioos:station:NOAA.NERRS:wkbfrwq:1,2014-04-10T19:45:00Z,30.4162,-87.8228,46.0,1111122 
NERRS,ioos:station:NOAA.NERRS:wkbfrwq:1,2014-04-10T21:45:00Z,30.4162,-87.8228,48.0,1111122 
NERRS,ioos:station:NOAA.NERRS:wkbfrwq:1,2014-04-10T22:45:00Z,30.4162,-87.8228,47.0,1111122 
NERRS,ioos:station:NOAA.NERRS:wkbfrwq:1,2014-04-10T23:45:00Z,30.4162,-87.8228,47.0,1111122 
NERRS,ioos:station:NOAA.NERRS:wkbfrwq:1,2014-04-11T00:45:00Z,30.4162,-87.8228,46.0,1111122 
NERRS,ioos:station:NOAA.NERRS:wkbfrwq:1,2014-04-11T01:45:00Z,30.4162,-87.8228,46.0,1111122 
NERRS,ioos:station:NOAA.NERRS:wkbfrwq:1,2014-04-11T02:45:00Z,30.4162,-87.8228,44.0,1111122 
NERRS,ioos:station:NOAA.NERRS:wkbfrwq:1,2014-04-11T03:45:00Z,30.4162,-87.8228,43.0,1111122 
NERRS,ioos:station:NOAA.NERRS:wkbfrwq:1,2014-04-11T04:45:00Z,30.4162,-87.8228,43.0,1111122 
NERRS,ioos:station:NOAA.NERRS:wkbfrwq:1,2014-04-11T05:45:00Z,30.4162,-87.8228,41.0,1111122 
NERRS,ioos:station:NOAA.NERRS:wkbfrwq:1,2014-04-11T06:45:00Z,30.4162,-87.8228,41.0,1111122 
NERRS,ioos:station:NOAA.NERRS:wkbfrwq:1,2014-04-11T07:45:00Z,30.4162,-87.8228,40.0,1111122 
NERRS,ioos:station:NOAA.NERRS:wkbfrwq:1,2014-04-11T08:45:00Z,30.4162,-87.8228,39.0,1111122 
NERRS,ioos:station:NOAA.NERRS:wkbfrwq:1,2014-04-11T09:45:00Z,30.4162,-87.8228,39.0,1111122 
NERRS,ioos:station:NOAA.NERRS:wkbfrwq:1,2014-04-11T10:45:00Z,30.4162,-87.8228,39.0,1111122 
NERRS,ioos:station:NOAA.NERRS:wkbfrwq:1,2014-04-11T11:45:00Z,30.4162,-87.8228,42.0,1111122 
NERRS,ioos:station:NOAA.NERRS:wkbfrwq:1,2014-04-11T12:45:00Z,30.4162,-87.8228,41.0,1111122 
NERRS,ioos:station:NOAA.NERRS:wkbfrwq:1,2014-04-11T13:45:00Z,30.4162,-87.8228,47.0,1111122 
NERRS,ioos:station:NOAA.NERRS:wkbfrwq:1,2014-04-11T14:45:00Z,30.4162,-87.8228,42.0,1111122 
NERRS,ioos:station:NOAA.NERRS:wkbfrwq:1,2014-04-11T15:45:00Z,30.4162,-87.8228,39.0,1111122 
NERRS,ioos:station:NOAA.NERRS:wkbfrwq:1,2014-04-11T16:45:00Z,30.4162,-87.8228,43.0,1111122 
NERRS,ioos:station:NOAA.NERRS:wkbfrwq:1,2014-04-11T17:45:00Z,30.4162,-87.8228,44.0,1111122 
NERRS,ioos:station:NOAA.NERRS:wkbfrwq:1,2014-04-11T18:45:00Z,30.4162,-87.8228,39.0,1111122 
NERRS,ioos:station:NOAA.NERRS:wkbfrwq:1,2014-04-11T19:45:00Z,30.4162,-87.8228,39.0,1111122 
NERRS,ioos:station:NOAA.NERRS:wkbfrwq:1,2014-04-11T20:45:00Z,30.4162,-87.8228,39.0,1111122 
NERRS,ioos:station:NOAA.NERRS:wkbfrwq:1,2014-04-11T21:45:00Z,30.4162,-87.8228,44.0,1111122 
NERRS,ioos:station:NOAA.NERRS:wkbfrwq:1,2014-04-12T00:45:00Z,30.4162,-87.8228,43.0,1111122 
NERRS,ioos:station:NOAA.NERRS:wkbfrwq:1,2014-04-12T01:45:00Z,30.4162,-87.8228,39.0,1111122 
NERRS,ioos:station:NOAA.NERRS:wkbfrwq:1,2014-04-12T02:45:00Z,30.4162,-87.8228,37.0,1111122 
NERRS,ioos:station:NOAA.NERRS:wkbfrwq:1,2014-04-12T03:45:00Z,30.4162,-87.8228,36.0,1111122 
NERRS,ioos:station:NOAA.NERRS:wkbfrwq:1,2014-04-12T04:45:00Z,30.4162,-87.8228,36.0,1111122 
NERRS,ioos:station:NOAA.NERRS:wkbfrwq:1,2014-04-12T05:45:00Z,30.4162,-87.8228,35.0,1111122 
NERRS,ioos:station:NOAA.NERRS:wkbfrwq:1,2014-04-12T06:45:00Z,30.4162,-87.8228,32.0,1111122 
NERRS,ioos:station:NOAA.NERRS:wkbfrwq:1,2014-04-12T07:45:00Z,30.4162,-87.8228,32.0,1111122 
NERRS,ioos:station:NOAA.NERRS:wkbfrwq:1,2014-04-12T08:45:00Z,30.4162,-87.8228,32.0,1111122 
NERRS,ioos:station:NOAA.NERRS:wkbfrwq:1,2014-04-12T09:45:00Z,30.4162,-87.8228,31.0,1111122 
NERRS,ioos:station:NOAA.NERRS:wkbfrwq:1,2014-04-12T10:45:00Z,30.4162,-87.8228,31.0,1111122 
NERRS,ioos:station:NOAA.NERRS:wkbfrwq:1,2014-04-12T12:45:00Z,30.4162,-87.8228,33.0,1111122 
NERRS,ioos:station:NOAA.NERRS:wkbfrwq:1,2014-04-12T13:45:00Z,30.4162,-87.8228,34.0,1111122 
NERRS,ioos:station:NOAA.NERRS:wkbfrwq:1,2014-04-12T14:45:00Z,30.4162,-87.8228,37.0,1111122 
NERRS,ioos:station:NOAA.NERRS:wkbfrwq:1,2014-04-12T15:45:00Z,30.4162,-87.8228,34.0,1111122 
NERRS,ioos:station:NOAA.NERRS:wkbfrwq:1,2014-04-12T16:45:00Z,30.4162,-87.8228,35.0,1111122 
NERRS,ioos:station:NOAA.NERRS:wkbfrwq:1,2014-04-12T17:45:00Z,30.4162,-87.8228,38.0,1111122 
NERRS,ioos:station:NOAA.NERRS:wkbfrwq:1,2014-04-12T18:45:00Z,30.4162,-87.8228,37.0,1111122 
NERRS,ioos:station:NOAA.NERRS:wkbfrwq:1,2014-04-12T19:45:00Z,30.4162,-87.8228,37.0,1111122 
NERRS,ioos:station:NOAA.NERRS:wkbfrwq:1,2014-04-12T20:45:00Z,30.4162,-87.8228,36.0,1111122 
NERRS,ioos:station:NOAA.NERRS:wkbfrwq:1,2014-04-12T21:45:00Z,30.4162,-87.8228,33.0,1111122 
NERRS,ioos:station:NOAA.NERRS:wkbfrwq:1,2014-04-12T23:45:00Z,30.4162,-87.8228,36.0,1111122 
NERRS,ioos:station:NOAA.NERRS:wkbfrwq:1,2014-04-13T00:45:00Z,30.4162,-87.8228,33.0,1111122 
NERRS,ioos:station:NOAA.NERRS:wkbfrwq:1,2014-04-13T01:45:00Z,30.4162,-87.8228,31.0,1111122 
NERRS,ioos:station:NOAA.NERRS:wkbfrwq:1,2014-04-13T02:45:00Z,30.4162,-87.8228,35.0,1111122 
NERRS,ioos:station:NOAA.NERRS:wkbfrwq:1,2014-04-13T03:45:00Z,30.4162,-87.8228,32.0,1111122 
NERRS,ioos:station:NOAA.NERRS:wkbfrwq:1,2014-04-13T04:45:00Z,30.4162,-87.8228,31.0,1111122 
NERRS,ioos:station:NOAA.NERRS:wkbfrwq:1,2014-04-13T05:45:00Z,30.4162,-87.8228,30.0,1111122 
NERRS,ioos:station:NOAA.NERRS:wkbfrwq:1,2014-04-13T06:45:00Z,30.4162,-87.8228,31.0,1111122 
NERRS,ioos:station:NOAA.NERRS:wkbfrwq:1,2014-04-13T07:45:00Z,30.4162,-87.8228,31.0,1111122 
NERRS,ioos:station:NOAA.NERRS:wkbfrwq:1,2014-04-13T08:45:00Z,30.4162,-87.8228,30.0,1111122 
NERRS,ioos:station:NOAA.NERRS:wkbfrwq:1,2014-04-13T10:45:00Z,30.4162,-87.8228,29.0,1111122 
NERRS,ioos:station:NOAA.NERRS:wkbfrwq:1,2014-04-13T12:45:00Z,30.4162,-87.8228,30.0,1111122 
NERRS,ioos:station:NOAA.NERRS:wkbfrwq:1,2014-04-13T13:45:00Z,30.4162,-87.8228,32.0,1111122 
NERRS,ioos:station:NOAA.NERRS:wkbfrwq:1,2014-04-13T14:45:00Z,30.4162,-87.8228,29.0,1111122 
NERRS,ioos:station:NOAA.NERRS:wkbfrwq:1,2014-04-13T16:45:00Z,30.4162,-87.8228,33.0,1111122 
NERRS,ioos:station:NOAA.NERRS:wkbfrwq:1,2014-04-13T17:45:00Z,30.4162,-87.8228,31.0,1111122 
NERRS,ioos:station:NOAA.NERRS:wkbfrwq:1,2014-04-13T18:45:00Z,30.4162,-87.8228,33.0,1111122 
NERRS,ioos:station:NOAA.NERRS:wkbfrwq:1,2014-04-13T19:45:00Z,30.4162,-87.8228,30.0,1111122 
NERRS,ioos:station:NOAA.NERRS:wkbfrwq:1,2014-04-13T20:45:00Z,30.4162,-87.8228,30.0,1111122 
NERRS,ioos:station:NOAA.NERRS:wkbfrwq:1,2014-04-13T22:45:00Z,30.4162,-87.8228,28.0,1111122 
NERRS,ioos:station:NOAA.NERRS:wkbfrwq:1,2014-04-14T00:45:00Z,30.4162,-87.8228,31.0,1111122 
NERRS,ioos:station:NOAA.NERRS:wkbfrwq:1,2014-04-14T01:45:00Z,30.4162,-87.8228,27.0,1111122 
NERRS,ioos:station:NOAA.NERRS:wkbfrwq:1,2014-04-14T02:45:00Z,30.4162,-87.8228,27.0,1111122 
NERRS,ioos:station:NOAA.NERRS:wkbfrwq:1,2014-04-14T03:45:00Z,30.4162,-87.8228,27.0,1111122 
NERRS,ioos:station:NOAA.NERRS:wkbfrwq:1,2014-04-14T04:45:00Z,30.4162,-87.8228,27.0,1111122 
NERRS,ioos:station:NOAA.NERRS:wkbfrwq:1,2014-04-14T06:45:00Z,30.4162,-87.8228,29.0,1111122 
NERRS,ioos:station:NOAA.NERRS:wkbfrwq:1,2014-04-14T07:45:00Z,30.4162,-87.8228,27.0,1111122 
NERRS,ioos:station:NOAA.NERRS:wkbfrwq:1,2014-04-14T08:45:00Z,30.4162,-87.8228,27.0,1111122 
NERRS,ioos:station:NOAA.NERRS:wkbfrwq:1,2014-04-14T09:45:00Z,30.4162,-87.8228,27.0,1111122 
NERRS,ioos:station:NOAA.NERRS:wkbfrwq:1,2014-04-14T11:45:00Z,30.4162,-87.8228,28.0,1111122 
NERRS,ioos:station:NOAA.NERRS:wkbfrwq:1,2014-04-14T12:45:00Z,30.4162,-87.8228,30.0,1111122 
NERRS,ioos:station:NOAA.NERRS:wkbfrwq:1,2014-04-14T13:45:00Z,30.4162,-87.8228,28.0,1111122 
NERRS,ioos:station:NOAA.NERRS:wkbfrwq:1,2014-04-14T14:45:00Z,30.4162,-87.8228,41.0,1111122 
NERRS,ioos:station:NOAA.NERRS:wkbfrwq:1,2014-04-14T15:45:00Z,30.4162,-87.8228,31.0,1111122 
NERRS,ioos:station:NOAA.NERRS:wkbfrwq:1,2014-04-14T16:45:00Z,30.4162,-87.8228,44.0,1111122 
NERRS,ioos:station:NOAA.NERRS:wkbfrwq:1,2014-04-14T17:45:00Z,30.4162,-87.8228,28.0,1111122 
NERRS,ioos:station:NOAA.NERRS:wkbfrwq:1,2014-04-14T18:45:00Z,30.4162,-87.8228,33.0,1111122 
NERRS,ioos:station:NOAA.NERRS:wkbfrwq:1,2014-04-14T19:45:00Z,30.4162,-87.8228,27.0,1111122 
NERRS,ioos:station:NOAA.NERRS:wkbfrwq:1,2014-04-14T20:45:00Z,30.4162,-87.8228,30.0,1111122 
NERRS,ioos:station:NOAA.NERRS:wkbfrwq:1,2014-04-14T21:45:00Z,30.4162,-87.8228,26.0,1111122 
NERRS,ioos:station:NOAA.NERRS:wkbfrwq:1,2014-04-14T22:45:00Z,30.4162,-87.8228,26.0,1111122 
NERRS,ioos:station:NOAA.NERRS:wkbfrwq:1,2014-04-14T23:45:00Z,30.4162,-87.8228,26.0,1111122 
NERRS,ioos:station:NOAA.NERRS:wkbfrwq:1,2014-04-15T00:45:00Z,30.4162,-87.8228,23.0,1111122 
NERRS,ioos:station:NOAA.NERRS:wkbfrwq:1,2014-04-15T01:45:00Z,30.4162,-87.8228,26.0,1111122 
NERRS,ioos:station:NOAA.NERRS:wkbfrwq:1,2014-04-15T02:45:00Z,30.4162,-87.8228,22.0,1111122 
NERRS,ioos:station:NOAA.NERRS:wkbfrwq:1,2014-04-15T03:45:00Z,30.4162,-87.8228,39.0,1111122 
NERRS,ioos:station:NOAA.NERRS:wkbfrwq:1,2014-04-15T04:45:00Z,30.4162,-87.8228,118.0,1111122 
NERRS,ioos:station:NOAA.NERRS:wkbfrwq:1,2014-04-15T05:45:00Z,30.4162,-87.8228,278.0,1111122 
NERRS,ioos:station:NOAA.NERRS:wkbfrwq:1,2014-04-15T07:45:00Z,30.4162,-87.8228,226.0,1111122 
NERRS,ioos:station:NOAA.NERRS:wkbfrwq:1,2014-04-15T08:45:00Z,30.4162,-87.8228,285.0,1111122 
NERRS,ioos:station:NOAA.NERRS:wkbfrwq:1,2014-04-15T09:45:00Z,30.4162,-87.8228,331.0,1111122 
NERRS,ioos:station:NOAA.NERRS:wkbfrwq:1,2014-04-15T10:45:00Z,30.4162,-87.8228,361.0,1111122 
NERRS,ioos:station:NOAA.NERRS:wkbfrwq:1,2014-04-15T11:45:00Z,30.4162,-87.8228,315.0,1111122 
NERRS,ioos:station:NOAA.NERRS:wkbfrwq:1,2014-04-15T12:45:00Z,30.4162,-87.8228,404.0,1111122 
NERRS,ioos:station:NOAA.NERRS:wkbfrwq:1,2014-04-15T14:45:00Z,30.4162,-87.8228,443.0,1111122 
NERRS,ioos:station:NOAA.NERRS:wkbfrwq:1,2014-04-15T15:45:00Z,30.4162,-87.8228,396.0,1111122 
NERRS,ioos:station:NOAA.NERRS:wkbfrwq:1,2014-04-15T17:45:00Z,30.4162,-87.8228,288.0,1111122 
NERRS,ioos:station:NOAA.NERRS:wkbfrwq:1,2014-04-15T18:45:00Z,30.4162,-87.8228,245.0,1111122 
NERRS,ioos:station:NOAA.NERRS:wkbfrwq:1,2014-04-15T19:45:00Z,30.4162,-87.8228,217.0,1111122 
NERRS,ioos:station:NOAA.NERRS:wkbfrwq:1,2014-04-15T20:45:00Z,30.4162,-87.8228,201.0,1111122 
NERRS,ioos:station:NOAA.NERRS:wkbfrwq:1,2014-04-15T21:45:00Z,30.4162,-87.8228,184.0,1111122 
NERRS,ioos:station:NOAA.NERRS:wkbfrwq:1,2014-04-15T22:45:00Z,30.4162,-87.8228,171.0,1111122 
NERRS,ioos:station:NOAA.NERRS:wkbfrwq:1,2014-04-15T23:45:00Z,30.4162,-87.8228,154.0,1111122 
NERRS,ioos:station:NOAA.NERRS:wkbfrwq:1,2014-04-16T00:45:00Z,30.4162,-87.8228,145.0,1111122 
NERRS,ioos:station:NOAA.NERRS:wkbfrwq:1,2014-04-16T01:45:00Z,30.4162,-87.8228,136.0,1111122 
NERRS,ioos:station:NOAA.NERRS:wkbfrwq:1,2014-04-16T04:45:00Z,30.4162,-87.8228,117.0,1111122 
NERRS,ioos:station:NOAA.NERRS:wkbfrwq:1,2014-04-16T05:45:00Z,30.4162,-87.8228,113.0,1111122 
NERRS,ioos:station:NOAA.NERRS:wkbfrwq:1,2014-04-16T06:45:00Z,30.4162,-87.8228,109.0,1111122 
NERRS,ioos:station:NOAA.NERRS:wkbfrwq:1,2014-04-16T07:45:00Z,30.4162,-87.8228,107.0,1111122 
NERRS,ioos:station:NOAA.NERRS:wkbfrwq:1,2014-04-16T08:45:00Z,30.4162,-87.8228,113.0,1111122 
NERRS,ioos:station:NOAA.NERRS:wkbfrwq:1,2014-04-16T09:45:00Z,30.4162,-87.8228,104.0,1111122 
NERRS,ioos:station:NOAA.NERRS:wkbfrwq:1,2014-04-16T10:45:00Z,30.4162,-87.8228,101.0,1111122 
NERRS,ioos:station:NOAA.NERRS:wkbfrwq:1,2014-04-16T11:45:00Z,30.4162,-87.8228,102.0,1111122 
NERRS,ioos:station:NOAA.NERRS:wkbfrwq:1,2014-04-16T14:45:00Z,30.4162,-87.8228,100.0,1111122 